This is the latest recevied weather packets stored in our database for station/object K1RTA-1. If no packets are shown the sender has not sent any weather packets the latest 10 day(s).
| Time | Temp. | Humidity | Pressure | Rain* | Wind** | Luminosity | Snow |
|---|---|---|---|---|---|---|---|
| 1777988184 | 16.67° C | 75% | 1013.6 hPa | 0 mm | - | - | - |
| 1777987284 | 16.67° C | 75% | 1013.4 hPa | 0 mm | - | - | - |
| 1777986385 | 16.67° C | 75% | 1013.4 hPa | 0 mm | - | - | - |
| 1777985484 | 16.11° C | 77% | 1013.5 hPa | 0 mm | - | - | - |
| 1777984583 | 15.56° C | 79% | 1013.4 hPa | 0 mm | - | - | - |
| 1777983684 | 15° C | 80% | 1013.4 hPa | 0 mm | - | - | - |
| 1777982784 | 14.44° C | 81% | 1013.2 hPa | 0 mm | - | - | - |
| 1777981885 | 13.89° C | 82% | 1013.6 hPa | 0 mm | - | - | - |
| 1777980985 | 13.33° C | 82% | 1013.7 hPa | 0 mm | - | - | - |
| 1777980085 | 13.33° C | 83% | 1013.6 hPa | 0 mm | - | - | - |
| 1777979184 | 12.78° C | 83% | 1013.7 hPa | 0 mm | - | - | - |
| 1777978285 | 12.78° C | 84% | 1013.4 hPa | 0 mm | - | - | - |
| 1777977384 | 12.22° C | 84% | 1013.5 hPa | 0 mm | - | - | - |
| 1777976484 | 12.22° C | 84% | 1013.5 hPa | 0 mm | - | - | - |
| 1777975585 | 12.22° C | 85% | 1013.4 hPa | 0 mm | - | - | - |
| 1777974684 | 11.67° C | 85% | 1013.3 hPa | 0 mm | - | - | - |
| 1777973784 | 11.67° C | 85% | 1013.3 hPa | 0 mm | - | - | - |
| 1777972885 | 11.67° C | 86% | 1013.2 hPa | 0 mm | - | - | - |
| 1777971984 | 11.67° C | 86% | 1013.2 hPa | 0 mm | - | - | - |
| 1777971085 | 11.67° C | 86% | 1013.1 hPa | 0 mm | - | - | - |
| 1777970184 | 12.22° C | 86% | 1013.2 hPa | 0 mm | - | - | - |
| 1777969285 | 12.22° C | 85% | 1013.3 hPa | 0 mm | - | - | - |
| 1777968384 | 12.22° C | 85% | 1013.3 hPa | 0 mm | - | - | - |
| 1777967485 | 12.22° C | 85% | 1013.3 hPa | 0 mm | - | - | - |
| 1777966584 | 12.22° C | 85% | 1013.3 hPa | 0 mm | - | - | - |
* Rain latest hour (hover to see other rain measurements)
** Current wind speed in m/s (hover to see current wind gust speed)